FLOCK 3P-9 (41973 NORAD) Tracking and Keplerian Element Data

This shows tracking and keplerian element data for the satellite.

Feedback or suggestion? Click here.




ElementValue
Catalog41973
NameFLOCK 3P-9
Epoch Orbit17715
Epoch Day114.68047486
Epoch Year2020
RAAN183.1336
Inclination97.3684
Eccentricity0.0009398
Argument of Perigee122.0028
Mean Anonmoly238.2125
Mean Motion15.26638264
Decay Rate2.184E-05
L11 41973U 17008AB 20114.68047486 .00002184 00000-0 86011-4 0 9996
L22 41973 97.3684 183.1336 0009398 122.0028 238.2125 15.26638264177159



Live tracking and technical data element details for FLOCK 3P-9 (NORAD 41973). FLOCK 3P-9 can be tracked NOW for your location showing map with azimuth and elevation plus other details from your city location.







IsCatalogInMostPopularTable: catalog: 41973, numindb: 600
Update: records affected: 1



GetName: 41973 FLOCK 3P-9

Hit Count: updated at: Mon, 17 Jun 2024 22:36:11 GMT